Theta_e
310 312 315 318 318 322 326 329 339 350 353 349 342 340 336 339 339 340 347 345 344 343 346 341 342 343 343 344 346 346 346 344 347 343 343 344 347 347 346 346 346 346 344
308 311 313 316 319 322 326 327 327 336 346 352 352 350 348 344 341 341 348 347 344 346 344 346 346 348 345 347 349 349 345 346 348 342 340 335 340 344 347 346 346 348 351
307 309 311 314 319 319 322 324 329 332 333 340 347 350 351 351 348 347 347 348 348 347 349 350 350 357 352 347 351 351 349 343 347 348 341 334 331 338 343 346 346 348 351
308 309 311 312 316 317 319 322 327 329 331 335 339 348 341 341 344 348 351 353 353 350 350 353 354 361 354 356 353 351 350 350 344 345 346 347 344 334 331 340 343 346 347
307 308 309 312 315 316 319 322 325 328 332 335 337 333 345 341 345 346 356 364 362 355 352 355 359 359 354 357 358 353 352 348 345 344 343 344 342 343 336 331 334 339 340
308 310 311 312 314 316 316 320 323 326 330 333 333 336 337 344 339 343 343 346 349 353 356 355 357 360 357 357 354 355 352 350 350 347 346 342 338 337 336 334 334 333 339
308 310 310 311 312 313 316 318 319 322 325 328 328 331 336 339 345 349 343 344 340 343 357 357 360 357 358 357 355 354 352 352 349 350 345 346 344 343 340 336 332 333 338
309 310 311 312 312 313 314 316 318 320 323 325 328 329 333 332 335 341 338 338 339 342 359 355 356 356 356 355 356 351 349 351 350 350 350 348 345 343 339 335 332 332 338
309 310 311 312 313 314 315 316 317 319 322 323 326 329 330 335 337 345 345 341 346 344 351 352 354 355 356 355 354 347 350 350 350 350 349 347 345 344 341 339 336 338 329
308 309 310 311 313 314 315 317 320 320 322 324 325 325 327 332 337 342 346 350 353 351 349 351 352 354 352 351 353 350 353 350 350 350 349 349 345 342 342 340 338 336 332
307 308 310 312 312 314 314 316 317 319 320 321 323 325 327 331 334 337 341 345 349 348 346 348 349 349 349 351 353 354 352 351 351 350 348 346 345 341 347 341 338 336 335
308 309 310 311 311 312 314 315 317 318 319 320 321 323 326 330 334 336 341 342 344 347 347 347 347 346 347 352 352 352 350 350 348 347 346 342 343 344 345 340 340 337 337
307 308 310 310 311 314 314 314 318 320 321 322 321 322 325 330 335 337 341 342 341 344 347 346 344 344 346 350 352 352 350 349 347 344 344 343 343 342 341 339 336 335 335
306 307 308 310 313 316 317 318 318 320 321 323 322 322 326 331 334 338 340 341 340 342 345 345 344 344 347 350 351 351 348 346 345 346 343 342 342 340 339 337 337 336 333
305 305 306 309 311 315 317 317 317 318 321 323 323 324 327 331 335 338 339 340 340 341 343 344 344 347 348 347 350 348 344 345 344 342 340 343 337 329 332 335 337 336 332
303 304 306 308 310 313 314 316 316 317 321 321 323 326 329 332 334 339 338 340 341 343 344 345 346 348 345 314 319 336 344 344 342 341 341 341 329 327 319 319 320 328 336
302 303 305 307 310 313 314 314 316 318 318 320 322 326 329 331 335 338 338 340 345 348 347 347 347 347 345 310 312 320 344 344 342 341 340 337 335 331 336 316 315 317 317
301 302 304 307 310 311 311 313 316 316 316 320 321 326 328 333 337 337 340 346 348 349 348 346 347 346 337 305 308 313 341 339 339 339 339 339 338 337 335 334 333 333 333
304 306 307 309 310 310 310 311 314 315 316 318 322 327 328 335 337 338 343 344 346 344 345 345 344 340 329 302 304 320 339 338 338 338 339 338 337 314 307 335 332 332 332
303 305 306 309 309 312 312 313 313 315 314 318 324 326 332 334 336 341 341 343 343 342 342 342 342 326 324 300 302 316 335 336 335 337 337 308 325 302 303 336 334 330 331
304 306 306 306 310 312 312 312 315 315 316 321 324 324 332 334 337 339 340 340 340 340 338 336 334 334 332 319 301 304 335 333 332 331 332 330 300 300 301 310 331 330 331
303 305 305 305 308 312 315 312 314 317 319 322 325 328 332 334 334 336 337 339 339 335 334 329 332 332 333 311 303 302 311 317 332 331 332 322 297 298 299 312 299 306 312
303 305 305 307 310 313 313 312 317 319 322 324 324 330 331 331 333 333 334 332 333 330 329 329 329 328 329 326 299 300 303 305 329 332 308 297 295 297 303 297 299 303 326
302 303 304 304 305 310 312 316 318 317 323 324 325 328 327 328 332 334 334 330 329 329 328 328 328 326 327 329 329 325 323 308 318 307 314 309 311 307 312 314 313 330 328
302 303 304 305 307 312 315 316 316 320 324 326 326 327 327 330 329 324 325 327 329 326 329 329 328 327 326 327 316 321 328 328 319 320 324 325 326 324 326 327 327 327 327
300 300 302 303 306 312 314 317 319 320 327 324 324 324 323 322 325 326 319 297 298 298 300 303 320 323 306 297 297 298 299 301 300 324 325 323 324 324 325 324 324 325 321
Wind_Speed
8 6 7 6 3 4 4 4 6 5 8 10 14 12 11 10 13 11 13 13 13 12 11 11 7 9 11 7 10 9 9 9 8 7 9 9 9 10 9 9 9 9 11
11 9 6 6 4 4 5 4 2 6 9 13 8 8 9 11 10 11 11 13 12 12 13 13 9 12 11 10 13 11 8 9 8 6 6 8 7 8 10 9 9 10 6
11 11 8 7 7 6 6 7 5 5 6 11 9 8 7 6 8 12 11 12 16 16 16 15 12 13 12 11 13 11 13 9 8 11 7 5 7 2 5 9 9 9 6
10 11 11 11 9 7 6 7 9 5 6 7 9 11 8 10 11 10 9 11 16 17 16 14 16 14 12 12 12 11 12 11 8 7 9 10 7 6 5 5 7 7 8
6 8 7 6 6 7 9 8 7 7 7 8 9 9 12 9 14 11 13 11 11 14 15 17 16 14 12 12 11 12 13 10 9 8 6 8 8 10 8 7 6 8 6
5 3 3 3 6 6 7 9 9 8 7 10 9 10 13 13 12 12 11 11 10 11 15 16 15 14 13 13 11 11 13 11 10 8 8 7 8 8 9 10 8 8 4
4 6 6 5 6 10 10 9 10 11 11 10 8 10 12 14 15 14 12 13 11 11 11 14 13 12 14 12 12 13 12 12 10 10 9 9 9 8 7 7 7 6 3
6 7 7 8 9 9 11 13 14 14 14 13 13 10 12 10 11 14 14 12 12 10 9 13 14 14 14 13 13 11 10 10 9 11 11 8 7 6 6 6 8 5 3
8 9 11 12 13 13 13 14 15 16 15 15 13 12 12 13 12 12 11 10 9 8 10 13 13 14 14 14 13 10 10 9 10 10 9 9 8 9 7 7 7 4 7
10 13 15 17 16 15 16 14 14 15 16 16 14 13 13 13 14 12 13 13 11 12 11 12 14 14 15 14 13 9 10 10 9 8 11 10 7 6 8 8 8 8 8
17 19 19 19 17 17 18 17 15 14 13 14 14 15 15 16 14 12 13 13 12 12 13 13 15 15 15 14 13 11 12 13 11 9 10 11 9 8 7 7 7 7 5
16 18 18 19 19 19 18 13 14 14 14 14 16 16 16 16 15 15 15 13 13 13 14 15 15 16 15 14 14 13 13 13 12 11 12 11 8 9 8 7 5 6 3
17 18 17 17 17 16 13 12 11 14 15 16 17 17 16 16 16 16 15 14 14 15 16 16 17 16 15 15 14 14 13 12 11 12 11 11 10 9 7 7 7 6 5
15 16 17 17 15 14 12 11 12 13 16 16 16 17 17 17 17 16 15 15 15 16 16 16 16 15 14 15 14 13 11 11 10 9 9 10 11 11 8 8 7 4 5
18 18 18 18 17 15 13 12 11 13 14 16 16 17 17 18 18 17 16 15 15 15 16 15 15 14 14 12 15 13 13 13 13 12 11 10 9 5 7 7 8 7 8
27 26 19 19 18 15 13 14 14 12 13 15 18 17 18 18 18 17 16 15 16 16 16 16 16 16 12 16 12 13 13 12 12 12 11 10 7 6 4 1 3 3 5
22 22 19 15 17 16 15 17 18 14 14 16 17 19 18 19 18 17 17 18 16 16 16 16 15 14 11 15 12 9 10 11 11 11 10 10 10 10 11 5 5 5 6
16 14 18 20 18 18 19 20 19 16 16 17 17 19 16 20 17 18 17 17 16 16 14 14 13 13 9 11 13 11 11 9 9 10 9 10 10 12 11 12 11 10 8
22 19 15 16 19 18 17 20 19 16 18 18 17 17 14 19 16 19 18 14 15 14 15 15 15 14 12 9 11 11 11 10 9 8 9 10 10 8 5 12 12 10 8
21 20 17 16 17 18 17 19 19 19 21 17 17 11 13 15 16 16 17 15 14 14 12 14 15 14 12 7 8 7 8 8 8 6 6 8 2 10 8 10 10 10 9
22 19 15 16 18 16 15 19 21 23 17 17 13 11 15 15 13 13 13 14 16 15 16 15 13 13 13 9 5 5 6 7 7 7 7 6 9 9 7 3 4 7 9
23 20 15 15 16 18 19 16 19 17 19 17 12 14 15 11 12 15 15 16 18 17 16 14 12 9 10 8 5 3 3 4 8 8 6 8 8 8 7 7 10 10 3
18 18 16 16 16 18 16 15 20 19 17 11 12 13 15 13 14 17 17 14 14 13 14 13 12 10 9 7 7 7 7 3 5 6 10 13 10 9 7 10 10 9 2
19 18 17 18 18 16 16 16 16 16 10 10 12 14 15 14 13 12 12 11 12 13 11 12 11 10 9 9 9 8 8 10 11 12 9 8 10 8 10 9 8 5 7
18 16 17 16 19 16 12 12 14 10 11 13 13 14 14 15 15 11 8 8 5 7 12 11 11 11 11 8 7 7 9 9 10 11 9 9 9 9 9 7 5 5 5
20 22 22 21 20 21 19 14 11 13 15 14 12 12 12 12 14 13 12 22 13 17 17 14 8 8 16 13 13 13 17 17 13 9 8 8 8 9 7 7 6 4 6
Wind_Direction
262 262 291 302 310 356 344 8 322 1 216 232 222 201 212 218 219 223 220 210 212 217 200 214 194 208 234 187 216 209 215 225 229 252 242 238 232 246 248 230 237 233 224
253 257 259 287 326 329 345 312 147 198 219 231 224 216 198 216 227 230 222 223 216 196 213 219 196 215 229 199 221 201 210 223 210 239 253 270 224 218 229 244 230 237 234
268 264 282 313 318 339 343 310 314 301 277 266 238 221 227 230 217 223 221 210 208 206 212 214 212 211 217 207 213 196 211 218 199 223 254 258 256 291 167 226 247 237 224
242 248 271 299 312 322 318 318 315 322 288 287 255 253 224 226 231 226 217 205 210 216 217 221 220 224 215 224 200 194 212 227 210 197 233 258 281 253 221 201 221 238 235
265 290 267 292 301 313 323 316 313 324 302 281 269 264 242 233 243 228 221 217 192 212 219 217 221 220 219 215 220 197 206 201 227 205 211 219 229 244 273 267 197 214 228
279 219 193 286 305 303 311 317 315 290 268 257 258 246 265 249 247 226 230 225 220 205 219 218 219 216 216 218 206 207 205 217 208 233 229 226 216 228 231 243 251 248 201
254 233 250 285 316 316 312 306 302 294 280 270 263 259 253 256 254 249 228 235 223 218 203 212 216 215 212 203 202 206 206 203 211 212 220 223 217 230 242 256 261 241 199
235 254 264 272 287 298 306 304 301 299 299 289 280 269 254 251 245 245 245 235 228 226 196 199 216 218 211 204 200 201 208 198 208 214 226 226 224 218 217 226 265 254 211
278 279 293 293 301 302 293 295 296 292 293 284 273 270 266 254 258 246 228 239 237 220 206 202 204 207 208 203 194 212 194 196 203 198 209 225 214 211 216 232 240 238 246
284 295 305 304 301 299 295 286 284 284 290 286 277 271 268 260 253 250 248 244 237 215 214 198 195 195 200 199 198 190 187 188 193 205 197 209 211 202 219 225 235 242 258
294 298 297 294 288 284 288 288 275 267 277 284 275 271 271 268 261 252 247 235 233 219 213 201 192 192 195 195 194 196 175 189 192 200 198 201 205 220 212 222 229 239 243
297 296 293 290 289 281 281 278 278 272 276 276 273 269 266 266 258 251 246 235 225 220 210 206 197 194 193 190 190 188 181 193 195 194 195 199 199 214 219 217 221 228 207
301 296 291 288 288 282 278 267 274 283 284 278 275 265 261 259 255 250 244 230 219 215 212 201 199 194 189 185 191 189 186 193 190 194 196 195 199 202 199 226 181 202 215
301 298 287 283 283 285 272 271 279 288 292 283 269 263 261 258 253 250 242 227 217 212 205 202 202 192 182 183 183 182 178 183 189 183 191 195 195 200 199 205 204 190 207
291 296 284 279 276 268 274 271 280 291 290 287 271 262 261 258 251 244 235 223 215 211 202 195 192 183 180 178 176 174 176 178 181 181 192 196 197 174 200 201 199 177 219
296 294 279 280 273 258 276 284 293 298 289 281 277 270 270 262 244 237 227 212 204 198 191 187 181 175 183 128 156 177 183 184 189 183 190 169 153 153 153 58 130 206 209
299 300 287 283 286 269 275 287 286 293 288 276 272 268 261 261 240 225 212 199 191 182 179 176 170 170 143 131 135 149 171 180 180 181 185 193 184 191 186 155 143 106 65
291 289 294 288 275 273 274 275 275 276 285 280 267 265 263 256 225 210 198 183 172 170 164 164 160 158 137 133 147 167 163 173 175 184 188 203 193 201 193 173 177 183 183
295 291 275 278 281 272 267 268 269 275 274 275 260 263 262 241 202 196 183 161 165 156 156 153 147 147 139 149 148 175 163 168 176 189 200 207 209 161 186 177 179 173 151
279 274 277 276 270 268 264 267 262 265 270 269 259 262 242 220 185 181 167 159 142 137 137 148 148 138 135 146 164 212 186 170 178 179 161 43 200 142 178 197 178 170 166
288 288 281 268 264 259 253 252 256 252 269 270 262 259 215 188 182 147 149 132 130 130 134 127 134 131 138 145 173 250 191 169 168 179 175 130 123 136 158 163 162 179 155
277 271 270 266 257 254 249 244 254 260 264 268 248 236 177 161 144 140 130 137 135 133 127 124 124 122 126 107 124 49 6 110 180 160 142 109 131 141 155 133 115 108 226
277 273 262 259 258 254 255 224 243 250 262 241 244 167 136 144 140 137 132 129 130 133 144 145 136 137 139 124 97 89 104 37 161 126 83 108 118 124 109 120 128 141 241
273 268 267 261 261 251 242 233 240 265 229 228 151 138 139 133 131 129 124 122 141 144 153 144 142 139 149 151 149 140 125 103 95 110 118 117 108 90 101 136 172 179 169
276 266 252 237 239 249 228 209 242 246 192 136 141 135 127 130 121 87 105 128 111 142 150 150 147 154 157 153 118 144 145 145 128 127 141 144 133 141 156 156 138 126 147
284 275 258 239 225 224 222 217 222 231 144 134 137 127 122 122 127 121 95 45 48 59 63 63 127 82 94 97 88 93 96 115 162 151 150 146 160 152 154 146 143 156 142